DAL246 BIKF-KJFK

Flight info

Callsign DAL246
Flight time N/A
Altitude 34000
Route DELES2C DELES DCT DOPOD DCT 61N030W 5630N04000W 54N050W DCT NEEKO/N0459F340 N616B TOPPS DCT ENE PARCH4
Aircraft B752/M-SDE2E3FGHIJ3J4J7RWXY/LB1

Departure

Time 2026-04-27 18:10
Airport Keflavik International Airport (BIKF)

Arrival

Time N/A
Airport John F. Kennedy International Airport (KJFK)
Time Latitude Longitude Altitude Speed Heading
2026-04-27 18:04 63.99285 -22.61439 143 ft 1 kts 185°
2026-04-27 18:04 63.99292 -22.61439 143 ft 1 kts 179°
2026-04-27 18:04 63.99294 -22.61439 143 ft 0 kts 179°
2026-04-27 18:06 63.99289 -22.61439 143 ft 3 kts 179°
2026-04-27 18:07 63.99252 -22.61439 143 ft 6 kts 180°
2026-04-27 18:07 63.99200 -22.61423 143 ft 7 kts 153°
2026-04-27 18:07 63.99175 -22.61328 143 ft 6 kts 99°
2026-04-27 18:07 63.99172 -22.61244 145 ft 4 kts 91°
2026-04-27 18:08 63.99172 -22.61184 146 ft 4 kts 90°
2026-04-27 18:08 63.99172 -22.61087 147 ft 7 kts 90°
2026-04-27 18:08 63.99172 -22.60945 147 ft 10 kts 90°
2026-04-27 18:08 63.99171 -22.60802 147 ft 7 kts 91°
2026-04-27 18:09 63.99170 -22.60719 147 ft 3 kts 91°
2026-04-27 18:09 63.99163 -22.60609 147 ft 11 kts 111°
2026-04-27 18:09 63.99127 -22.60556 147 ft 5 kts 167°
2026-04-27 18:09 63.98996 -22.60550 150 ft 44 kts 179°
2026-04-27 18:10 63.98415 -22.60544 159 ft 121 kts 180°
2026-04-27 18:10 63.97377 -22.60605 294 ft 173 kts 179°
2026-04-27 18:10 63.96091 -22.60666 1073 ft 193 kts 176°
2026-04-27 18:10 63.94817 -22.60709 2089 ft 188 kts 180°
2026-04-27 18:11 63.93447 -22.60983 2389 ft 210 kts 182°
2026-04-27 18:11 63.91989 -22.60957 3052 ft 211 kts 177°
2026-04-27 18:11 63.90503 -22.60957 3476 ft 221 kts 191°
2026-04-27 18:11 63.89120 -22.62453 4031 ft 231 kts 218°
2026-04-27 18:12 63.88197 -22.65431 4773 ft 237 kts 235°
2026-04-27 18:12 63.87555 -22.68892 5450 ft 241 kts 241°
2026-04-27 18:12 63.86937 -22.72412 6076 ft 240 kts 239°
2026-04-27 18:12 63.86298 -22.75844 6718 ft 239 kts 239°
2026-04-27 18:13 63.85645 -22.79290 7262 ft 241 kts 238°
2026-04-27 18:13 63.84980 -22.82766 7765 ft 244 kts 238°
2026-04-27 18:13 63.84306 -22.86261 8320 ft 244 kts 238°
2026-04-27 18:13 63.83627 -22.89762 8821 ft 245 kts 238°
2026-04-27 18:14 63.82937 -22.93301 9339 ft 246 kts 238°
2026-04-27 18:14 63.82244 -22.96838 9740 ft 250 kts 237°
2026-04-27 18:14 63.81533 -23.00463 10086 ft 258 kts 238°
2026-04-27 18:14 63.80768 -23.04324 10264 ft 279 kts 238°
2026-04-27 18:15 63.79953 -23.08452 10541 ft 297 kts 238°
2026-04-27 18:15 63.79102 -23.12767 10790 ft 314 kts 239°
2026-04-27 18:15 63.78178 -23.17438 11056 ft 329 kts 239°
2026-04-27 18:15 63.77258 -23.22110 11763 ft 329 kts 239°
2026-04-27 18:16 63.76333 -23.26785 12368 ft 332 kts 239°
2026-04-27 18:16 63.75377 -23.31587 13051 ft 332 kts 239°
2026-04-27 18:16 63.74432 -23.36327 13506 ft 338 kts 238°
2026-04-27 18:16 63.73460 -23.41183 14105 ft 340 kts 239°
2026-04-27 18:17 63.72487 -23.46030 14734 ft 341 kts 239°
2026-04-27 18:17 63.71516 -23.50865 15243 ft 345 kts 239°
2026-04-27 18:17 63.70525 -23.55786 15909 ft 344 kts 239°
2026-04-27 18:17 63.69545 -23.60636 16401 ft 348 kts 239°
2026-04-27 18:18 63.68536 -23.65618 17053 ft 347 kts 238°
2026-04-27 18:18 63.67538 -23.70540 17494 ft 352 kts 238°
2026-04-27 18:18 63.66532 -23.75483 18078 ft 352 kts 238°
2026-04-27 18:18 63.65502 -23.80530 18554 ft 354 kts 238°
2026-04-27 18:19 63.64486 -23.85506 19003 ft 357 kts 238°
2026-04-27 18:19 63.63437 -23.90621 19530 ft 358 kts 238°
2026-04-27 18:19 63.62405 -23.95644 19928 ft 362 kts 238°
2026-04-27 18:19 63.61352 -24.00759 20397 ft 363 kts 238°
2026-04-27 18:20 63.60291 -24.05893 20829 ft 366 kts 238°
2026-04-27 18:20 63.59219 -24.11076 21363 ft 365 kts 238°
2026-04-27 18:20 63.58147 -24.16235 21576 ft 372 kts 238°
2026-04-27 18:20 63.57063 -24.21457 22189 ft 369 kts 238°
2026-04-27 18:21 63.55967 -24.26709 22522 ft 373 kts 238°
2026-04-27 18:21 63.54881 -24.31912 23058 ft 371 kts 237°
2026-04-27 18:21 63.53780 -24.37159 23213 ft 379 kts 237°
2026-04-27 18:21 63.52656 -24.42504 23739 ft 377 kts 238°
2026-04-27 18:22 63.51546 -24.47774 23976 ft 382 kts 237°
2026-04-27 18:22 63.50414 -24.53136 24439 ft 381 kts 237°
2026-04-27 18:22 63.49184 -24.58326 24691 ft 379 kts 231°
2026-04-27 18:22 63.47667 -24.63090 24993 ft 379 kts 229°
2026-04-27 18:23 63.46135 -24.67883 25415 ft 378 kts 229°
2026-04-27 18:23 63.44601 -24.72637 25657 ft 381 kts 228°
2026-04-27 18:23 63.43065 -24.77396 25938 ft 384 kts 228°
2026-04-27 18:23 63.41500 -24.82215 26424 ft 382 kts 228°
2026-04-27 18:24 63.39953 -24.86974 26581 ft 387 kts 228°
2026-04-27 18:24 63.38376 -24.91809 26955 ft 387 kts 228°
2026-04-27 18:24 63.36783 -24.96681 27341 ft 385 kts 228°
2026-04-27 18:24 63.35212 -25.01479 27532 ft 389 kts 228°
2026-04-27 18:25 63.33630 -25.06293 27760 ft 392 kts 229°
2026-04-27 18:25 63.32018 -25.11191 28115 ft 391 kts 229°
2026-04-27 18:25 63.30426 -25.16017 28355 ft 393 kts 228°
2026-04-27 18:25 63.28801 -25.20933 28669 ft 393 kts 228°
2026-04-27 18:26 63.27184 -25.25813 28850 ft 396 kts 229°
2026-04-27 18:26 63.25553 -25.30728 29174 ft 395 kts 228°
2026-04-27 18:26 63.23920 -25.35628 29300 ft 399 kts 229°
2026-04-27 18:26 63.22293 -25.40511 29574 ft 399 kts 229°
2026-04-27 18:27 63.20658 -25.45408 30008 ft 396 kts 229°
2026-04-27 18:27 63.19031 -25.50262 30313 ft 395 kts 229°
2026-04-27 18:27 63.17405 -25.55110 30593 ft 394 kts 227°
2026-04-27 18:27 63.15769 -25.59977 30737 ft 397 kts 229°
2026-04-27 18:28 63.14144 -25.64802 31154 ft 392 kts 228°
2026-04-27 18:28 63.12513 -25.69625 31391 ft 392 kts 227°
2026-04-27 18:28 63.10909 -25.74374 31839 ft 387 kts 227°
2026-04-27 18:28 63.09287 -25.79145 31979 ft 388 kts 227°
2026-04-27 18:29 63.07697 -25.83829 32417 ft 382 kts 227°
2026-04-27 18:29 63.06114 -25.88476 32569 ft 383 kts 227°
2026-04-27 18:29 63.04514 -25.93162 32790 ft 382 kts 227°
2026-04-27 18:29 63.02925 -25.97807 32994 ft 381 kts 227°
2026-04-27 18:30 63.01347 -26.02413 33162 ft 381 kts 226°
2026-04-27 18:30 62.99752 -26.07059 33355 ft 380 kts 226°
2026-04-27 18:30 62.98180 -26.11617 33513 ft 378 kts 227°
2026-04-27 18:30 62.96601 -26.16209 33526 ft 377 kts 226°
2026-04-27 18:31 62.93430 -26.25367 33517 ft 378 kts 227°
2026-04-27 18:31 62.90306 -26.34571 33530 ft 383 kts 231°
2026-04-27 18:32 62.88143 -26.45405 33539 ft 395 kts 241°
2026-04-27 18:32 62.86210 -26.56650 33527 ft 393 kts 241°
2026-04-27 18:33 62.84292 -26.67761 33538 ft 392 kts 239°
2026-04-27 18:33 62.82354 -26.78942 33527 ft 394 kts 240°
2026-04-27 18:34 62.80410 -26.90085 33485 ft 395 kts 240°
2026-04-27 18:34 62.78458 -27.01228 33511 ft 394 kts 240°
2026-04-27 18:35 62.76503 -27.12321 33516 ft 393 kts 241°
2026-04-27 18:35 62.74528 -27.23452 33495 ft 395 kts 240°
2026-04-27 18:36 62.72545 -27.34576 33502 ft 398 kts 240°
2026-04-27 18:36 62.70534 -27.45786 33481 ft 397 kts 240°
2026-04-27 18:37 62.68530 -27.56897 33496 ft 397 kts 241°
2026-04-27 18:37 62.66514 -27.68008 33499 ft 397 kts 240°
2026-04-27 18:38 62.64483 -27.79136 33492 ft 397 kts 240°
2026-04-27 18:38 62.62451 -27.90211 33473 ft 396 kts 240°
2026-04-27 18:39 62.60413 -28.01257 33466 ft 398 kts 240°
2026-04-27 18:39 62.58347 -28.12386 33469 ft 399 kts 240°
2026-04-27 18:40 62.56281 -28.23447 33466 ft 398 kts 240°
2026-04-27 18:40 62.54198 -28.34551 33456 ft 399 kts 240°
2026-04-27 18:41 62.52097 -28.45671 33461 ft 401 kts 240°
2026-04-27 18:41 62.49985 -28.56800 33445 ft 402 kts 241°
2026-04-27 18:42 62.48210 -28.66099 33454 ft 404 kts 239°
2026-04-27 18:42 62.45721 -28.79078 33451 ft 405 kts 240°
2026-04-27 18:43 62.43559 -28.90280 33451 ft 403 kts 240°
2026-04-27 18:43 62.41402 -29.01390 33447 ft 404 kts 240°
2026-04-27 18:44 62.39231 -29.12514 33434 ft 405 kts 240°
2026-04-27 18:44 62.37030 -29.23718 33430 ft 409 kts 240°
2026-04-27 18:45 62.34816 -29.34938 33436 ft 408 kts 240°
2026-04-27 18:45 62.32602 -29.46096 33423 ft 408 kts 240°
2026-04-27 18:46 62.30364 -29.57303 33434 ft 411 kts 240°
2026-04-27 18:46 62.28124 -29.68472 33422 ft 410 kts 239°
2026-04-27 18:47 62.25852 -29.79728 33429 ft 413 kts 239°
2026-04-27 18:47 62.23570 -29.90975 33424 ft 414 kts 240°
2026-04-27 18:48 62.21276 -30.02223 33430 ft 415 kts 240°
2026-04-27 18:48 62.18970 -30.13464 33431 ft 413 kts 240°
2026-04-27 18:49 62.16659 -30.24668 33409 ft 415 kts 240°
2026-04-27 18:49 62.14323 -30.35933 33417 ft 416 kts 240°
2026-04-27 18:50 62.11989 -30.47127 33401 ft 415 kts 240°
2026-04-27 18:50 62.09638 -30.58340 33400 ft 416 kts 240°
2026-04-27 18:51 62.07274 -30.69552 33395 ft 416 kts 239°
2026-04-27 18:51 62.04897 -30.80773 33405 ft 415 kts 239°
2026-04-27 18:52 62.02533 -30.91868 33404 ft 416 kts 239°
2026-04-27 18:53 61.98940 -31.08620 33390 ft 416 kts 240°
2026-04-27 18:53 61.96541 -31.19731 33397 ft 415 kts 239°
2026-04-27 18:54 61.94127 -31.30854 33391 ft 416 kts 239°
2026-04-27 18:54 61.91701 -31.41967 33397 ft 415 kts 239°
2026-04-27 18:55 61.89283 -31.52994 33402 ft 415 kts 240°
2026-04-27 18:55 61.86853 -31.64008 33399 ft 416 kts 240°
2026-04-27 18:56 61.84417 -31.74999 33405 ft 413 kts 239°
2026-04-27 18:56 61.81977 -31.85952 33411 ft 413 kts 239°
2026-04-27 18:57 61.79528 -31.96890 33408 ft 414 kts 239°
2026-04-27 18:57 61.77073 -32.07795 33397 ft 412 kts 238°
2026-04-27 18:58 61.74606 -32.18694 33395 ft 415 kts 239°
2026-04-27 18:58 61.72128 -32.29592 33384 ft 414 kts 238°
2026-04-27 18:59 61.69636 -32.40490 33376 ft 414 kts 239°
2026-04-27 18:59 61.67139 -32.51364 33381 ft 415 kts 239°
2026-04-27 19:00 61.64623 -32.62260 33374 ft 414 kts 239°
2026-04-27 19:00 61.62112 -32.73076 33371 ft 413 kts 238°
2026-04-27 19:01 61.59604 -32.83834 33366 ft 413 kts 238°
2026-04-27 19:01 61.57077 -32.94607 33374 ft 412 kts 238°
2026-04-27 19:02 61.54554 -33.05322 33347 ft 413 kts 237°
2026-04-27 19:02 61.51998 -33.16109 33336 ft 414 kts 238°
2026-04-27 19:03 61.49457 -33.26795 33333 ft 414 kts 238°
2026-04-27 19:03 61.46881 -33.37564 33344 ft 414 kts 238°
2026-04-27 19:04 61.44311 -33.48260 33338 ft 414 kts 238°
2026-04-27 19:04 61.41735 -33.58931 33327 ft 413 kts 238°
2026-04-27 19:05 61.39151 -33.69575 33337 ft 415 kts 237°
2026-04-27 19:05 61.36532 -33.80318 33322 ft 415 kts 237°
2026-04-27 19:06 61.33923 -33.90962 33304 ft 416 kts 237°
2026-04-27 19:06 61.31295 -34.01640 33301 ft 417 kts 237°
2026-04-27 19:07 61.28652 -34.12317 33280 ft 416 kts 238°
2026-04-27 19:07 61.26027 -34.22879 33299 ft 416 kts 238°
2026-04-27 19:08 61.23374 -34.33496 33294 ft 415 kts 238°
2026-04-27 19:08 61.20708 -34.44115 33295 ft 416 kts 238°
2026-04-27 19:09 61.18061 -34.54610 33292 ft 416 kts 238°
2026-04-27 19:09 61.15380 -34.65186 33284 ft 417 kts 237°
2026-04-27 19:10 61.12696 -34.75727 33271 ft 417 kts 237°
2026-04-27 19:10 61.09992 -34.86295 33269 ft 416 kts 238°
2026-04-27 19:11 61.07285 -34.96826 33265 ft 416 kts 238°
2026-04-27 19:11 61.04575 -35.07317 33273 ft 418 kts 238°
2026-04-27 19:12 61.01854 -35.17806 33262 ft 417 kts 238°
2026-04-27 19:12 60.99112 -35.28322 33266 ft 419 kts 238°
2026-04-27 19:13 60.96359 -35.38826 33241 ft 418 kts 238°
2026-04-27 19:13 60.93597 -35.49322 33247 ft 419 kts 238°
2026-04-27 19:14 60.90819 -35.59824 33241 ft 420 kts 238°
2026-04-27 19:14 60.88042 -35.70280 33255 ft 419 kts 238°
2026-04-27 19:15 60.85260 -35.80705 33245 ft 419 kts 238°
2026-04-27 19:15 60.82462 -35.91138 33225 ft 419 kts 238°
2026-04-27 19:16 60.79665 -36.01522 33212 ft 420 kts 238°
2026-04-27 19:16 60.76848 -36.11928 33223 ft 420 kts 238°
2026-04-27 19:17 60.74024 -36.22314 33224 ft 420 kts 238°
2026-04-27 19:17 60.71193 -36.32680 33228 ft 419 kts 238°
2026-04-27 19:18 60.68346 -36.43051 33205 ft 421 kts 238°
2026-04-27 19:18 60.65492 -36.53406 33216 ft 419 kts 238°
2026-04-27 19:19 60.62646 -36.63684 33221 ft 419 kts 238°
2026-04-27 19:19 60.59783 -36.73974 33224 ft 420 kts 238°
2026-04-27 19:20 60.56904 -36.84277 33218 ft 419 kts 238°
2026-04-27 19:20 60.54033 -36.94505 33220 ft 419 kts 238°
2026-04-27 19:21 60.51140 -37.04764 33203 ft 421 kts 238°
2026-04-27 19:21 60.48244 -37.14991 33214 ft 418 kts 238°
2026-04-27 19:22 60.45355 -37.25144 33215 ft 420 kts 238°
2026-04-27 19:22 60.42449 -37.35311 33209 ft 419 kts 238°
2026-04-27 19:23 60.39523 -37.45504 33211 ft 421 kts 238°
2026-04-27 19:23 60.36597 -37.55648 33194 ft 419 kts 238°
2026-04-27 19:24 60.33662 -37.65784 33212 ft 421 kts 238°
2026-04-27 19:24 60.30704 -37.75952 33232 ft 420 kts 238°
2026-04-27 19:25 60.27754 -37.86048 33212 ft 421 kts 238°
2026-04-27 19:25 60.24797 -37.96122 33199 ft 420 kts 238°
2026-04-27 19:26 60.21826 -38.06202 33182 ft 421 kts 238°
2026-04-27 19:26 60.18845 -38.16269 33219 ft 421 kts 239°
2026-04-27 19:27 60.15860 -38.26308 33216 ft 419 kts 239°
2026-04-27 19:27 60.12876 -38.36299 33209 ft 422 kts 239°
2026-04-27 19:28 60.09861 -38.46354 33188 ft 420 kts 239°
2026-04-27 19:28 60.06852 -38.56342 33188 ft 420 kts 239°
2026-04-27 19:29 60.03845 -38.66278 33206 ft 419 kts 238°
2026-04-27 19:29 60.00842 -38.76158 33190 ft 419 kts 238°
2026-04-27 19:30 59.97816 -38.86074 33194 ft 419 kts 238°
2026-04-27 19:30 59.94800 -38.95915 33210 ft 420 kts 239°
2026-04-27 19:31 59.91747 -39.05836 33240 ft 420 kts 238°
2026-04-27 19:31 59.88683 -39.15746 33262 ft 421 kts 239°
2026-04-27 19:32 59.85637 -39.25561 33221 ft 421 kts 239°
2026-04-27 19:32 59.82561 -39.35428 33232 ft 420 kts 239°
2026-04-27 19:33 59.79487 -39.45245 33219 ft 421 kts 239°
2026-04-27 19:33 59.76401 -39.55065 33226 ft 418 kts 239°
2026-04-27 19:34 59.73342 -39.64750 33238 ft 419 kts 239°
2026-04-27 19:34 59.70250 -39.74503 33235 ft 420 kts 239°
2026-04-27 19:35 59.67166 -39.84191 33261 ft 418 kts 238°
2026-04-27 19:35 59.64071 -39.93874 33271 ft 418 kts 238°
2026-04-27 19:36 59.60970 -40.03534 33252 ft 418 kts 239°
2026-04-27 19:36 59.57844 -40.13233 33253 ft 420 kts 239°
2026-04-27 19:37 59.54725 -40.22869 33300 ft 418 kts 239°
2026-04-27 19:37 59.51620 -40.32422 33290 ft 419 kts 239°
2026-04-27 19:38 59.48473 -40.42066 33304 ft 420 kts 239°
2026-04-27 19:38 59.45334 -40.51644 33295 ft 419 kts 239°
2026-04-27 19:39 59.42166 -40.61270 33318 ft 419 kts 239°
2026-04-27 19:39 59.39023 -40.70783 33334 ft 418 kts 238°
2026-04-27 19:40 59.35854 -40.80337 33338 ft 418 kts 238°
2026-04-27 19:40 59.32683 -40.89858 33352 ft 418 kts 238°
2026-04-27 19:41 59.29518 -40.99323 33353 ft 419 kts 238°
2026-04-27 19:41 59.26340 -41.08785 33400 ft 416 kts 238°
2026-04-27 19:42 59.23152 -41.18242 33382 ft 420 kts 238°
2026-04-27 19:42 59.19955 -41.27684 33427 ft 418 kts 239°
2026-04-27 19:43 59.16768 -41.37068 33397 ft 417 kts 239°
2026-04-27 19:43 59.13582 -41.46401 33444 ft 416 kts 239°
2026-04-27 19:44 59.10371 -41.55777 33449 ft 416 kts 239°
2026-04-27 19:44 59.07183 -41.65046 33447 ft 416 kts 238°
2026-04-27 19:45 59.03959 -41.74382 33489 ft 416 kts 238°
2026-04-27 19:45 59.00742 -41.83664 33498 ft 416 kts 238°
2026-04-27 19:46 58.97529 -41.92898 33491 ft 416 kts 238°
2026-04-27 19:46 58.94294 -42.02156 33492 ft 417 kts 239°
2026-04-27 19:47 58.91043 -42.11426 33517 ft 418 kts 239°
2026-04-27 19:47 58.87778 -42.20697 33545 ft 418 kts 239°
2026-04-27 19:48 58.84511 -42.29940 33554 ft 421 kts 239°
2026-04-27 19:48 58.81226 -42.39197 33582 ft 420 kts 239°
2026-04-27 19:49 58.77920 -42.48478 33567 ft 423 kts 239°
2026-04-27 19:49 58.74593 -42.57778 33592 ft 424 kts 239°
2026-04-27 19:50 58.71266 -42.67042 33587 ft 423 kts 239°
2026-04-27 19:50 58.67921 -42.76323 33605 ft 425 kts 238°
2026-04-27 19:51 58.64556 -42.85619 33620 ft 425 kts 238°
2026-04-27 19:51 58.61176 -42.94922 33642 ft 427 kts 239°
2026-04-27 19:52 58.57782 -43.04228 33632 ft 429 kts 239°
2026-04-27 19:52 58.54390 -43.13494 33650 ft 429 kts 239°
2026-04-27 19:53 58.49240 -43.27488 33667 ft 430 kts 239°
2026-04-27 19:53 58.45810 -43.36764 33699 ft 430 kts 239°
2026-04-27 19:54 58.42365 -43.46044 33704 ft 429 kts 239°
2026-04-27 19:54 58.38924 -43.55275 33712 ft 431 kts 239°
2026-04-27 19:55 58.35476 -43.64492 33709 ft 430 kts 239°
2026-04-27 19:55 58.31998 -43.73752 33748 ft 432 kts 239°
2026-04-27 19:56 58.28527 -43.82957 33752 ft 430 kts 239°
2026-04-27 19:56 58.25047 -43.92154 33763 ft 431 kts 238°
2026-04-27 19:57 58.21555 -44.01342 33774 ft 430 kts 239°
2026-04-27 19:57 58.18066 -44.10490 33792 ft 429 kts 239°
2026-04-27 19:58 58.14579 -44.19596 33794 ft 429 kts 239°
2026-04-27 19:58 58.11074 -44.28715 33809 ft 431 kts 239°
2026-04-27 19:59 58.07585 -44.37757 33814 ft 429 kts 239°
2026-04-27 19:59 58.04067 -44.46841 33849 ft 429 kts 239°
2026-04-27 20:00 58.00565 -44.55849 33848 ft 429 kts 239°
2026-04-27 20:00 57.97035 -44.64898 33855 ft 429 kts 239°
2026-04-27 20:01 57.93498 -44.73926 33877 ft 430 kts 238°
2026-04-27 20:01 57.89966 -44.82909 33875 ft 430 kts 239°
2026-04-27 20:02 57.86431 -44.91863 33888 ft 429 kts 239°
2026-04-27 20:02 57.82883 -45.00820 33877 ft 431 kts 239°
2026-04-27 20:03 57.79312 -45.09802 33896 ft 431 kts 239°
2026-04-27 20:03 57.75729 -45.18778 33912 ft 431 kts 239°
2026-04-27 20:04 57.72151 -45.27709 33907 ft 430 kts 239°
2026-04-27 20:04 57.69171 -45.35121 33923 ft 431 kts 239°
2026-04-27 20:05 57.64991 -45.45479 33926 ft 428 kts 239°
2026-04-27 20:05 57.61404 -45.54333 33933 ft 429 kts 239°
2026-04-27 20:06 57.57830 -45.63123 33929 ft 430 kts 239°
2026-04-27 20:06 57.54207 -45.72002 33955 ft 431 kts 239°
2026-04-27 20:07 57.50590 -45.80830 33952 ft 431 kts 238°
2026-04-27 20:07 57.46957 -45.89668 33963 ft 432 kts 238°
2026-04-27 20:08 57.43323 -45.98470 33973 ft 430 kts 238°
2026-04-27 20:08 57.39702 -46.07214 33968 ft 431 kts 239°
2026-04-27 20:09 57.36050 -46.15999 33986 ft 431 kts 239°
2026-04-27 20:09 57.32416 -46.24710 33979 ft 431 kts 238°
2026-04-27 20:10 57.28760 -46.33438 33995 ft 430 kts 239°
2026-04-27 20:10 57.25099 -46.42152 34002 ft 432 kts 239°
2026-04-27 20:11 57.21444 -46.50815 34010 ft 431 kts 239°
2026-04-27 20:11 57.17757 -46.59524 34009 ft 430 kts 239°
2026-04-27 20:12 57.14715 -46.66689 34027 ft 431 kts 238°
2026-04-27 20:12 57.10413 -46.76781 34038 ft 431 kts 238°
2026-04-27 20:13 57.06721 -46.85406 34048 ft 431 kts 238°
2026-04-27 20:13 57.03008 -46.94051 34052 ft 431 kts 238°
2026-04-27 20:14 56.99324 -47.02597 34064 ft 430 kts 238°
2026-04-27 20:14 56.95604 -47.11199 34056 ft 431 kts 238°
2026-04-27 20:15 56.91902 -47.19727 34056 ft 430 kts 238°
2026-04-27 20:15 56.88195 -47.28236 34056 ft 430 kts 238°
2026-04-27 20:16 56.84481 -47.36729 34068 ft 429 kts 238°
2026-04-27 20:16 56.80750 -47.45236 34076 ft 431 kts 239°
2026-04-27 20:17 56.77026 -47.53692 34079 ft 429 kts 239°
2026-04-27 20:17 56.73920 -47.60724 34078 ft 430 kts 238°
2026-04-27 20:18 56.69560 -47.70561 34099 ft 429 kts 238°
2026-04-27 20:18 56.65819 -47.78968 34099 ft 430 kts 238°
2026-04-27 20:19 56.62082 -47.87338 34100 ft 429 kts 238°
2026-04-27 20:19 56.58341 -47.95684 34113 ft 428 kts 238°
2026-04-27 20:20 56.54582 -48.04045 34121 ft 430 kts 238°
2026-04-27 20:20 56.50812 -48.12398 34118 ft 426 kts 238°
2026-04-27 20:21 56.47060 -48.20689 34123 ft 428 kts 238°
2026-04-27 20:21 56.43310 -48.28939 34137 ft 427 kts 238°
2026-04-27 20:22 56.39545 -48.37201 34133 ft 426 kts 238°
2026-04-27 20:22 56.35794 -48.45398 34125 ft 426 kts 239°
2026-04-27 20:23 56.32028 -48.53603 34131 ft 426 kts 239°
2026-04-27 20:23 56.28270 -48.61766 34138 ft 427 kts 239°
2026-04-27 20:24 56.24499 -48.69923 34147 ft 426 kts 238°
2026-04-27 20:24 56.20725 -48.78063 34161 ft 425 kts 238°
2026-04-27 20:25 56.16944 -48.86189 34158 ft 426 kts 238°
2026-04-27 20:25 56.13149 -48.94314 34167 ft 424 kts 238°
2026-04-27 20:26 56.09369 -49.02387 34182 ft 426 kts 238°
2026-04-27 20:26 56.05580 -49.10445 34202 ft 422 kts 238°
2026-04-27 20:27 56.01802 -49.18460 34205 ft 422 kts 238°
2026-04-27 20:27 55.98031 -49.26430 34213 ft 423 kts 239°
2026-04-27 20:28 55.94245 -49.34402 34202 ft 421 kts 239°
2026-04-27 20:28 55.91132 -49.40939 34205 ft 419 kts 239°
2026-04-27 20:29 55.86737 -49.50142 34199 ft 420 kts 238°
2026-04-27 20:29 55.82964 -49.58011 34207 ft 417 kts 238°
2026-04-27 20:30 55.79211 -49.65815 34209 ft 419 kts 238°
2026-04-27 20:30 55.75405 -49.73705 34216 ft 421 kts 238°
2026-04-27 20:31 55.71616 -49.81527 34217 ft 418 kts 238°
2026-04-27 20:31 55.67843 -49.89293 34221 ft 417 kts 238°
2026-04-27 20:32 55.64055 -49.97071 34221 ft 419 kts 238°
2026-04-27 20:32 55.60267 -50.04821 34224 ft 419 kts 238°
2026-04-27 20:33 55.56448 -50.12606 34224 ft 419 kts 238°
2026-04-27 20:33 55.52667 -50.20290 34227 ft 418 kts 238°
2026-04-27 20:34 55.48835 -50.28054 34229 ft 418 kts 238°
2026-04-27 20:34 55.45046 -50.35705 34233 ft 417 kts 238°
2026-04-27 20:35 55.41254 -50.43338 34235 ft 416 kts 238°
2026-04-27 20:35 55.37452 -50.50971 34231 ft 418 kts 238°
2026-04-27 20:36 55.33667 -50.58534 34233 ft 414 kts 238°
2026-04-27 20:36 55.29839 -50.66175 34254 ft 417 kts 237°
2026-04-27 20:37 55.26038 -50.73728 34267 ft 416 kts 237°
2026-04-27 20:37 55.22228 -50.81276 34272 ft 415 kts 237°
2026-04-27 20:38 55.18409 -50.88822 34278 ft 415 kts 237°
2026-04-27 20:38 55.14618 -50.96282 34280 ft 413 kts 238°
2026-04-27 20:39 55.10807 -51.03768 34278 ft 414 kts 237°
2026-04-27 20:39 55.06992 -51.11230 34276 ft 411 kts 237°
2026-04-27 20:40 55.03174 -51.18681 34279 ft 414 kts 237°
2026-04-27 20:40 54.99350 -51.26117 34278 ft 413 kts 237°
2026-04-27 20:41 54.95554 -51.33476 34274 ft 411 kts 237°
2026-04-27 20:41 54.91740 -51.40849 34273 ft 413 kts 237°
2026-04-27 20:42 54.87893 -51.48264 34266 ft 413 kts 237°
2026-04-27 20:42 54.84074 -51.55603 34276 ft 415 kts 237°
2026-04-27 20:43 54.80219 -51.62984 34273 ft 413 kts 237°
2026-04-27 20:43 54.76344 -51.70382 34291 ft 415 kts 236°
2026-04-27 20:44 54.72477 -51.77743 34300 ft 415 kts 236°
2026-04-27 20:44 54.68606 -51.85087 34294 ft 414 kts 236°
2026-04-27 20:45 54.64751 -51.92384 34305 ft 415 kts 236°
2026-04-27 20:45 54.60858 -51.99723 34303 ft 414 kts 236°
2026-04-27 20:46 54.56968 -52.07039 34307 ft 415 kts 236°
2026-04-27 20:46 54.53091 -52.14308 34306 ft 414 kts 236°
2026-04-27 20:47 54.49196 -52.21586 34311 ft 414 kts 236°
2026-04-27 20:47 54.45298 -52.28854 34308 ft 415 kts 236°
2026-04-27 20:48 54.42060 -52.34868 34309 ft 413 kts 236°
2026-04-27 20:48 54.37504 -52.43310 34310 ft 415 kts 236°
2026-04-27 20:49 54.33609 -52.50505 34312 ft 415 kts 235°
2026-04-27 20:49 54.29691 -52.57715 34315 ft 413 kts 236°
2026-04-27 20:50 54.25780 -52.64894 34313 ft 413 kts 235°
2026-04-27 20:50 54.21878 -52.72036 34335 ft 416 kts 234°
2026-04-27 20:51 54.17930 -52.79239 34332 ft 415 kts 235°
2026-04-27 20:51 54.14005 -52.86383 34336 ft 415 kts 234°
2026-04-27 20:52 54.10069 -52.93520 34334 ft 415 kts 234°
2026-04-27 20:52 54.06124 -53.00655 34337 ft 414 kts 234°
2026-04-27 20:53 54.02193 -53.07742 34338 ft 416 kts 234°
2026-04-27 20:53 53.98236 -53.14858 34336 ft 416 kts 234°
2026-04-27 20:54 53.92288 -53.25509 34330 ft 416 kts 234°
2026-04-27 20:55 53.88293 -53.32641 34331 ft 416 kts 234°
2026-04-27 20:55 53.84348 -53.39659 34330 ft 415 kts 233°
2026-04-27 20:56 53.80363 -53.46730 34331 ft 415 kts 233°
2026-04-27 20:56 53.76380 -53.53777 34333 ft 419 kts 233°
2026-04-27 20:57 53.72394 -53.60801 34332 ft 415 kts 234°
2026-04-27 20:57 53.68373 -53.67873 34351 ft 416 kts 233°
2026-04-27 20:58 53.64384 -53.74870 34348 ft 417 kts 233°
2026-04-27 20:58 53.60373 -53.81882 34350 ft 415 kts 233°
2026-04-27 20:59 53.56386 -53.88832 34350 ft 416 kts 232°
2026-04-27 20:59 53.52373 -53.95806 34351 ft 416 kts 233°
2026-04-27 21:00 53.48375 -54.02736 34345 ft 417 kts 232°
2026-04-27 21:00 53.44353 -54.09686 34346 ft 416 kts 232°
2026-04-27 21:01 53.40324 -54.16628 34350 ft 417 kts 232°
2026-04-27 21:01 53.36286 -54.23565 34350 ft 416 kts 232°
2026-04-27 21:02 53.32281 -54.30428 34352 ft 416 kts 232°
2026-04-27 21:02 53.28232 -54.37345 34354 ft 417 kts 232°
2026-04-27 21:03 53.24215 -54.44186 34361 ft 415 kts 232°
2026-04-27 21:03 53.20182 -54.51040 34371 ft 417 kts 232°
2026-04-27 21:04 53.16131 -54.57900 34373 ft 417 kts 232°
2026-04-27 21:04 53.12076 -54.64748 34371 ft 416 kts 232°
2026-04-27 21:05 53.08004 -54.71605 34379 ft 417 kts 231°
2026-04-27 21:05 53.03950 -54.78411 34384 ft 417 kts 231°
2026-04-27 21:06 52.99868 -54.85246 34384 ft 417 kts 231°
2026-04-27 21:06 52.95778 -54.92075 34378 ft 418 kts 231°
2026-04-27 21:07 52.91706 -54.98856 34369 ft 418 kts 231°
2026-04-27 21:07 52.87590 -55.05689 34365 ft 420 kts 231°
2026-04-27 21:08 52.83476 -55.12500 34368 ft 419 kts 231°
2026-04-27 21:08 52.79375 -55.19270 34357 ft 419 kts 230°
2026-04-27 21:09 52.75261 -55.26043 34361 ft 421 kts 230°
2026-04-27 21:09 52.71122 -55.32835 34360 ft 421 kts 230°
2026-04-27 21:10 52.66981 -55.39614 34362 ft 421 kts 230°
2026-04-27 21:10 52.62807 -55.46428 34368 ft 423 kts 230°
2026-04-27 21:11 52.58643 -55.53205 34374 ft 422 kts 230°
2026-04-27 21:11 52.54492 -55.59942 34373 ft 421 kts 230°
2026-04-27 21:12 52.50328 -55.66680 34380 ft 422 kts 229°
2026-04-27 21:12 52.46162 -55.73403 34379 ft 423 kts 229°
2026-04-27 21:13 52.41978 -55.80143 34377 ft 423 kts 230°
2026-04-27 21:13 52.38226 -55.87439 34376 ft 420 kts 236°
2026-04-27 21:14 52.34641 -55.94910 34371 ft 419 kts 236°
2026-04-27 21:14 52.31075 -56.02424 34360 ft 418 kts 236°
2026-04-27 21:15 52.27537 -56.09902 34357 ft 418 kts 236°
2026-04-27 21:15 52.23994 -56.17387 34342 ft 418 kts 236°
2026-04-27 21:16 52.20445 -56.24873 34334 ft 420 kts 235°
2026-04-27 21:16 52.16902 -56.32324 34322 ft 418 kts 236°
2026-04-27 21:17 52.13338 -56.39806 34315 ft 421 kts 236°
2026-04-27 21:17 52.09766 -56.47276 34307 ft 420 kts 236°
2026-04-27 21:18 52.06167 -56.54788 34313 ft 421 kts 236°
2026-04-27 21:18 52.02596 -56.62216 34314 ft 421 kts 236°
2026-04-27 21:19 51.99005 -56.69662 34320 ft 422 kts 235°
2026-04-27 21:19 51.95371 -56.77179 34321 ft 423 kts 234°
2026-04-27 21:20 51.89936 -56.88376 34316 ft 422 kts 234°
2026-04-27 21:20 51.86324 -56.95794 34315 ft 423 kts 234°
2026-04-27 21:21 51.82696 -57.03220 34320 ft 421 kts 234°
2026-04-27 21:21 51.79061 -57.10641 34323 ft 423 kts 234°
2026-04-27 21:22 51.75422 -57.18047 34326 ft 423 kts 234°
2026-04-27 21:22 51.71799 -57.25401 34328 ft 421 kts 234°
2026-04-27 21:23 51.68142 -57.32804 34335 ft 424 kts 234°
2026-04-27 21:23 51.64468 -57.40216 34345 ft 425 kts 234°
2026-04-27 21:24 51.60807 -57.47581 34351 ft 423 kts 234°
2026-04-27 21:24 51.57115 -57.54987 34350 ft 425 kts 234°
2026-04-27 21:25 51.53433 -57.62353 34348 ft 424 kts 234°
2026-04-27 21:25 51.49740 -57.69720 34378 ft 426 kts 233°
2026-04-27 21:26 51.46050 -57.77058 34371 ft 424 kts 233°
2026-04-27 21:26 51.42348 -57.84403 34356 ft 425 kts 233°
2026-04-27 21:27 51.38645 -57.91725 34353 ft 424 kts 233°
2026-04-27 21:27 51.34961 -57.98991 34351 ft 425 kts 232°
2026-04-27 21:28 51.31222 -58.06342 34351 ft 426 kts 232°
2026-04-27 21:28 51.27504 -58.13633 34365 ft 427 kts 232°
2026-04-27 21:29 51.23743 -58.20988 34365 ft 427 kts 232°
2026-04-27 21:29 51.20007 -58.28271 34364 ft 427 kts 232°
2026-04-27 21:30 51.16270 -58.35538 34363 ft 426 kts 232°
2026-04-27 21:30 51.12515 -58.42816 34368 ft 427 kts 232°
2026-04-27 21:31 51.08738 -58.50118 34365 ft 428 kts 232°
2026-04-27 21:31 51.04980 -58.57362 34372 ft 428 kts 232°
2026-04-27 21:32 51.01180 -58.64669 34369 ft 429 kts 232°
2026-04-27 21:32 50.97394 -58.71927 34375 ft 429 kts 231°
2026-04-27 21:33 50.93590 -58.79196 34375 ft 431 kts 231°
2026-04-27 21:33 50.89760 -58.86497 34384 ft 432 kts 231°
2026-04-27 21:34 50.85910 -58.93817 34399 ft 432 kts 231°
2026-04-27 21:34 50.82077 -59.01080 34402 ft 430 kts 231°
2026-04-27 21:35 50.78268 -59.08279 34400 ft 431 kts 231°
2026-04-27 21:35 50.74416 -59.15540 34398 ft 431 kts 231°
2026-04-27 21:36 50.70583 -59.22744 34393 ft 431 kts 230°
2026-04-27 21:36 50.66739 -59.29949 34393 ft 433 kts 230°
2026-04-27 21:37 50.62844 -59.37228 34387 ft 433 kts 230°
2026-04-27 21:37 50.58989 -59.44412 34383 ft 434 kts 230°
2026-04-27 21:38 50.55112 -59.51619 34373 ft 435 kts 230°
2026-04-27 21:38 50.51191 -59.58885 34373 ft 435 kts 230°
2026-04-27 21:39 50.47288 -59.66099 34376 ft 436 kts 229°
2026-04-27 21:39 50.43364 -59.73329 34380 ft 436 kts 229°
2026-04-27 21:40 50.39457 -59.80511 34380 ft 436 kts 229°
2026-04-27 21:40 50.35504 -59.87756 34378 ft 437 kts 229°
2026-04-27 21:41 50.31576 -59.94934 34380 ft 438 kts 229°
2026-04-27 21:41 50.27632 -60.02123 34375 ft 437 kts 229°
2026-04-27 21:42 50.23682 -60.09302 34371 ft 438 kts 229°
2026-04-27 21:42 50.19701 -60.16517 34368 ft 439 kts 229°
2026-04-27 21:43 50.15725 -60.23704 34376 ft 441 kts 229°
2026-04-27 21:43 50.11723 -60.30917 34376 ft 439 kts 228°
2026-04-27 21:44 50.07748 -60.38061 34375 ft 439 kts 228°
2026-04-27 21:44 50.03763 -60.45203 34386 ft 441 kts 228°
2026-04-27 21:45 49.99737 -60.52399 34390 ft 441 kts 228°
2026-04-27 21:45 49.95721 -60.59558 34393 ft 442 kts 228°
2026-04-27 21:46 49.91690 -60.66723 34398 ft 441 kts 227°
2026-04-27 21:46 49.87673 -60.73844 34407 ft 442 kts 227°
2026-04-27 21:47 49.83621 -60.81007 34404 ft 441 kts 227°
2026-04-27 21:47 49.79608 -60.88081 34405 ft 441 kts 227°
2026-04-27 21:48 49.75557 -60.95206 34404 ft 442 kts 227°
2026-04-27 21:48 49.71497 -61.02323 34404 ft 442 kts 227°
2026-04-27 21:49 49.67435 -61.09423 34400 ft 444 kts 227°
2026-04-27 21:49 49.63380 -61.16505 34399 ft 444 kts 227°
2026-04-27 21:50 49.59806 -61.24298 34181 ft 454 kts 242°
2026-04-27 21:50 49.58675 -61.28912 33691 ft 470 kts 254°
2026-04-27 21:50 49.58266 -61.33931 32850 ft 493 kts 268°
2026-04-27 21:51 49.58764 -61.39267 31692 ft 522 kts 284°
2026-04-27 21:51 49.60275 -61.44470 29934 ft 545 kts 300°
2026-04-27 21:51 49.62677 -61.48870 27320 ft 562 kts 317°
2026-04-27 21:51 49.65909 -61.52040 24162 ft 574 kts 336°
2026-04-27 21:52 49.69764 -61.53302 21278 ft 578 kts 359°
2026-04-27 21:52 49.73571 -61.52068 19472 ft 573 kts 25°
2026-04-27 21:52 49.76548 -61.48228 19787 ft 555 kts 56°
2026-04-27 21:52 49.77553 -61.43002 22372 ft 495 kts 95°
2026-04-27 21:53 49.76418 -61.38726 25105 ft 417 kts 140°
2026-04-27 21:53 49.74005 -61.36929 25798 ft 391 kts 181°
2026-04-27 21:53 49.71407 -61.38212 23828 ft 437 kts 223°
2026-04-27 21:53 49.69938 -61.42451 20976 ft 503 kts 263°
2026-04-27 21:54 49.70620 -61.47800 19388 ft 533 kts 300°
2026-04-27 21:54 49.73265 -61.51492 20253 ft 513 kts 337°
2026-04-27 21:54 49.76539 -61.51752 22631 ft 467 kts 19°
2026-04-27 21:54 49.78834 -61.48869 24407 ft 431 kts 63°
2026-04-27 21:55 49.79330 -61.44399 24078 ft 441 kts 106°
2026-04-27 21:55 49.77689 -61.40414 22017 ft 483 kts 148°
2026-04-27 21:55 49.74408 -61.39027 19894 ft 520 kts 188°
2026-04-27 21:55 49.71198 -61.41238 19424 ft 517 kts 226°
2026-04-27 21:56 49.69696 -61.45940 20877 ft 476 kts 268°
2026-04-27 21:56 49.73188 -61.52373 23709 ft 434 kts 355°